View from above orbital plane
|
View from above satellite
|
Ground track
|
The orbit data is extracted from the following two-line orbital elements,
1 17528U 87018B 21104.47152939 .00000089 00000-0 29051-4 0 9993
2 17528 97.4061 284.0275 0150295 238.2832 120.3642 14.51043790802484
Epoch (UTC): | 14 April 2021 11:19:00 |
Eccentricity: | 0.0150295 |
inclination: | 97.4061° |
perigee height: | 615 km |
apogee height: | 829 km |
right ascension of ascending node: | 284.0275° |
argument of perigee: | 238.2832° |
revolutions per day: | 14.51043790 |
mean anomaly at epoch: | 120.3642° |
orbit number at epoch: | 80248 |
The dashed part of the orbit path shows where the satellite is in the earth's shadow,
|
|